Location: *
(43.9905°S, 176.4941°W)
Time: 08:35:43
(UTC+00:00)

ERBS - Pass Details

Date: 08 December 2019
Orbit: 410 x 430 km, 57.0° (Epoch: 19 January)

Event Time Altitude Azimuth Distance (km) Brightness Sun altitude
Exits shadow 09:35:07 39° 340° (NNW) 676 2.9 -17.6°
Maximum altitude 09:36:12 64° 45° (NE) 491 2.2 -17.7°
Drops below altitude 10° 09:39:40 10° 127° (SE) 1,559 5.2 -18.0°
Sets 09:41:48 0° 130° (SE) 2,431 6.3 -18.2°
